Tracking 28799 objects as of 18-Apr-2024
HD Live streaming from Space Station
objects crossing your sky now

COSMOS 332

Track COSMOS 332 now!
10-day predictions
COSMOS 332 is classified as:


NORAD ID: 4369
Int'l Code: 1970-028A
Perigee: 721.6 km
Apogee: 729.5 km
Inclination: 74.0 °
Period: 99.2 minutes
Semi major axis: 7096 km
RCS: 3.6339 m2 (large)
Launch date: April 11, 1970
Source: Commonwealth of Independent States (former USSR) (CIS)
Launch site: PLESETSK MISSILE AND SPACE COMPLEX (PKMTR)
Your satellite tracking list
Your tracking list is empty




NASA's NSSDC Master Catalog

Two Line Element Set (TLE):
1  4369U 70028A   24108.69907021  .00000751  00000-0  19195-3 0  9999
2  4369  74.0356 315.8570 0005526   7.3751 352.7491 14.52225235853737
Source of the keplerian elements: AFSPC